Regional Weather Roundup
Issued by NWS

Home | Current Version | Previous Version | Text Only | Print | Product List | Glossary On
Versions: 1 2 3 4 5 6 7 8 9 10 11 12 13 14 15 16 17 18 19 20 21 22 23 24 25 26 27 28 29 30 31 32 33 34 35 36 37 38 39 40 41 42 43 44 45 46 47 48 49 50
000
ASCA42 TJSJ 211811
RWRPR
PUERTO RICO/U.S. VIRGIN ISLANDS HOURLY WEATHER ROUNDUP
NATIONAL WEATHER SERVICE SAN JUAN PR
200 PM AST THU AUG 21 2014

PRZ001-004-211900-
PUERTO RICO

CITY           SKY/WX    TMP DP  RH WIND       PRES   REMARKS
SAN JUAN LMM   MOSUNNY   86  79  79 NE17G25   29.96F HX  99
PONCE          PTSUNNY   91  72  52 NE9       29.90  HX  98
MAYAGUEZ       PTSUNNY   90  73  58 E16       29.98F HX  98
AGUADILLA      PTSUNNY   86  75  70 NE17G25   29.98F HX  95
CEIBA          MOSUNNY   88  75  66 NE14      29.97F HX  97
$$

PRZ006-007-211900-
U.S. VIRGIN ISLANDS

CITY           SKY/WX    TMP DP  RH WIND       PRES   REMARKS
$$

HOURLY WEATHER ROUNDUP FOR THE NEWS MEDIA

CITY           SKY/WX    TMP DP  RH WIND       PRES   REMARKS
MIAMI          PTSUNNY   91  75  59 SE12      30.10F HX 101
ORLANDO        SUNNY     94  72  48 S3        30.09F HX 102
NEW YORK       MOSUNNY   78  62  57 SE9       30.06F
NEWARK         PTSUNNY   79  66  64 SE12G17   30.04S
CHICAGO        CLOUDY    77  68  73 SW3       29.96R
HARTFORD       MOSUNNY   77  60  55 E8        30.05F
BOSTON         PTSUNNY   71  63  75 E10       30.09R
DALLAS         MOSUNNY   92  69  47 SW14      30.01F HX  97
PHILADELPHIA   PTSUNNY   82  68  62 S5        30.02F



USA.gov is the U.S. government's official web portal to all federal, state and local government web resources and services.